Temperature
20 19 19 19 19 18 18 18 18 18 18 18 17 17 17 17 17 17 16 16 16 16 16 16 15 15 15 15 15 15 15 15 14 14 14 14 14 14 14 14 14 14 14
20 19 19 19 18 18 18 18 18 18 18 17 17 17 17 17 17 16 16 16 16 16 16 16 15 15 15 15 15 15 14 14 14 14 14 13 13 13 13 13 13 13 13
20 19 19 19 18 18 18 18 17 17 17 17 17 17 17 17 16 16 16 16 16 16 16 15 15 15 15 15 14 14 14 14 14 14 13 13 13 12 12 12 12 12 12
20 19 19 19 19 18 18 18 17 17 17 17 17 17 17 16 16 16 16 15 15 15 15 15 15 15 14 14 14 14 14 14 13 13 13 12 12 12 12 12 12 12 12
20 19 19 19 19 18 18 17 17 17 17 17 17 17 16 16 16 16 16 15 15 15 15 15 15 14 14 14 14 14 14 13 13 13 12 12 12 12 12 11 11 11 11
20 19 19 19 18 18 18 17 17 17 17 17 16 16 16 16 16 15 15 15 15 15 15 15 14 14 14 14 14 13 13 13 13 13 12 12 12 12 11 11 11 11 10
20 19 19 19 18 18 18 17 17 17 17 17 16 16 16 15 15 15 15 15 15 15 14 14 14 14 14 14 13 13 13 13 12 12 12 12 12 11 11 11 11 11 10
20 19 19 19 18 18 18 17 17 17 17 16 16 16 15 15 15 15 14 14 14 14 14 14 14 13 13 13 13 13 13 12 12 12 12 12 11 11 11 11 10 10 10
19 19 19 19 18 18 18 17 17 17 16 16 16 15 15 15 14 14 14 14 14 14 13 13 13 13 13 13 13 13 12 12 12 12 11 11 11 11 11 10 10 10 10
19 19 18 18 18 18 17 17 17 16 16 15 15 15 14 14 14 14 14 13 13 13 13 13 13 13 12 12 12 12 12 12 11 11 11 11 11 10 10 10 10 10 9
19 18 18 18 17 17 17 16 16 16 15 15 15 14 14 14 14 14 13 13 13 13 13 12 12 12 12 12 12 12 11 11 11 11 10 10 10 10 10 10 9 9 9
18 18 18 17 17 17 16 16 16 15 15 14 14 14 14 14 13 13 13 13 13 12 12 12 12 12 11 11 11 11 11 10 10 10 10 10 10 10 9 9 9 9 9
18 17 17 17 16 16 16 16 15 15 15 14 14 14 13 13 13 13 12 12 12 12 12 11 11 11 11 11 10 10 10 10 10 10 10 10 9 9 9 9 9 9 9
17 17 17 16 16 16 15 15 15 15 14 14 14 13 13 13 12 12 12 12 12 11 11 11 11 11 10 10 10 10 10 10 10 9 9 9 9 9 9 9 9 8 8
17 16 16 16 15 15 15 14 14 14 14 14 13 13 13 13 12 12 12 12 12 11 11 11 10 10 10 10 10 10 10 9 9 9 9 9 9 9 9 8 8 8 8
16 16 15 15 15 15 14 14 14 13 13 13 13 13 12 12 12 12 11 11 11 11 11 10 10 10 10 10 10 10 9 9 9 9 9 9 9 8 8 8 8 8 8
15 15 15 14 14 14 14 14 13 13 13 12 12 12 12 12 12 11 11 11 11 10 10 10 10 10 10 10 9 9 9 9 9 8 8 8 8 8 8 8 8 8 7
15 14 14 14 14 14 13 13 13 13 12 12 12 12 12 11 11 11 11 11 10 10 10 10 10 9 9 9 9 9 9 8 8 8 8 8 8 8 7 7 7 7 7
14 14 14 13 13 13 13 13 12 12 12 12 12 11 11 11 11 11 10 10 10 10 10 10 9 9 9 9 9 9 9 8 8 8 8 8 7 7 7 7 7 7 7
14 13 13 13 13 13 12 12 12 12 11 11 11 11 11 11 11 10 10 10 10 10 9 9 9 9 9 8 8 8 8 8 8 8 8 7 7 7 7 7 7 7 7
13 13 13 12 12 12 12 12 12 11 11 11 11 11 10 10 10 10 10 10 9 9 9 9 9 8 8 8 8 8 8 8 8 7 7 7 7 7 7 7 7 6 7
12 12 12 12 12 12 11 11 11 11 11 11 10 10 10 10 10 9 9 9 9 9 9 8 8 8 8 8 7 7 7 7 7 7 7 7 7 6 6 6 6 6 6
12 12 12 12 11 11 11 11 11 10 10 10 10 10 10 9 9 9 9 9 8 8 8 8 8 8 8 7 7 7 7 7 7 6 6 6 6 6 6 6 6 6 6
12 11 11 11 11 11 11 10 10 10 10 10 9 9 9 9 9 9 8 8 8 8 8 8 8 7 7 7 7 7 6 6 6 6 6 6 5 5 5 5 5 5 5
11 11 11 11 10 10 10 10 10 9 9 9 9 9 8 8 8 8 8 8 8 8 7 7 7 7 7 6 6 6 6 6 5 5 5 5 5 5 5 5 5 5 5
11 10 10 10 10 10 10 9 9 9 9 9 8 8 8 8 8 8 7 7 7 7 7 7 7 6 6 6 6 6 5 5 5 5 5 5 4 4 4 4 4 4 4
Wind_Speed
6 6 6 5 5 5 4 4 4 3 3 3 3 2 2 1 1 1 0 1 2 2 2 2 2 2 2 2 2 2 2 3 3 1 0 0 1 1 3 3 3 3 3
6 5 5 5 5 5 4 4 4 3 3 3 3 3 2 1 1 1 1 1 2 2 2 2 2 1 1 2 2 2 2 3 3 3 1 0 1 1 2 2 3 4 3
5 5 5 5 5 5 4 4 4 4 3 3 3 3 2 2 1 1 1 1 1 1 2 2 2 2 2 1 2 2 2 2 2 3 2 1 0 1 2 2 3 3 3
6 6 6 5 5 5 4 4 4 4 3 3 2 2 2 1 1 1 1 1 0 0 0 1 1 2 2 2 2 2 2 2 3 3 2 1 1 0 1 1 1 2 2
6 6 6 5 5 5 5 4 4 3 3 3 3 2 2 1 1 1 1 1 1 0 0 0 0 1 2 2 2 3 3 3 3 3 2 2 1 1 1 0 0 1 1
7 6 5 6 6 5 5 5 4 4 3 3 3 2 1 0 0 2 2 2 1 1 0 0 0 0 1 2 2 3 4 4 4 3 2 3 2 2 1 1 1 0 1
8 7 6 6 6 5 5 5 4 4 3 3 2 2 1 0 0 1 2 2 2 1 1 0 0 1 1 1 2 2 3 3 4 4 4 4 4 4 3 2 2 1 1
7 7 7 7 6 6 6 5 4 3 3 3 2 2 1 1 0 2 3 2 2 1 1 1 1 1 1 2 3 3 2 1 1 2 3 3 3 3 4 3 2 1 0
7 7 7 8 7 6 6 5 4 4 3 2 2 2 1 1 1 2 3 2 2 1 1 1 1 1 2 3 4 3 3 2 3 3 3 2 3 4 5 3 2 1 1
7 7 7 7 8 7 6 5 4 4 3 3 2 1 1 1 1 1 3 2 2 1 1 2 3 3 3 4 4 3 3 1 2 3 3 3 3 4 5 4 3 2 1
6 6 6 6 7 6 5 4 5 4 4 3 2 1 1 0 0 1 3 2 2 2 1 1 1 3 4 4 4 3 2 2 2 3 3 3 2 2 1 2 2 2 2
6 6 6 6 6 6 6 5 5 5 5 3 2 1 0 0 1 1 3 3 3 3 2 1 1 3 4 4 3 3 4 4 3 3 3 2 1 0 0 1 2 2 2
7 7 6 6 5 5 6 6 5 5 4 3 3 2 1 0 0 1 2 2 3 3 2 2 2 3 3 3 3 4 4 3 3 2 1 0 1 1 0 0 0 0 1
7 7 6 6 5 4 3 4 5 4 4 4 4 3 2 1 1 1 1 1 2 2 2 2 3 4 3 3 3 2 2 1 2 1 0 0 1 1 1 1 0 0 1
7 6 5 5 6 5 4 3 4 4 5 5 5 4 4 3 3 3 3 2 3 3 3 2 2 2 1 1 1 1 1 1 1 0 0 0 0 0 0 1 1 1 0
6 5 5 4 4 4 4 3 3 2 2 3 4 4 3 3 3 4 4 3 3 5 4 2 1 1 1 1 1 1 1 1 1 1 1 1 1 1 1 1 1 1 2
6 5 5 5 5 5 5 4 3 2 3 3 3 4 4 4 4 4 4 4 4 5 3 2 2 2 2 2 3 3 2 2 2 2 2 2 2 1 1 1 1 2 3
5 6 5 4 4 4 4 4 4 4 2 0 0 2 4 4 4 4 5 5 2 3 2 3 3 3 3 3 3 3 3 2 2 2 3 3 3 3 3 2 3 3 3
4 3 4 4 4 4 4 4 3 4 3 2 1 1 2 3 3 3 5 3 3 3 4 4 4 3 3 3 3 3 3 3 3 3 3 3 3 3 4 4 4 4 4
3 4 4 4 4 3 3 3 3 3 3 2 2 2 2 2 1 2 3 3 3 4 4 4 4 3 3 3 3 3 3 3 3 4 4 4 4 4 5 5 5 5 5
3 4 5 4 3 3 3 3 3 3 3 2 2 2 4 3 3 3 3 4 4 4 4 4 3 3 3 2 2 3 3 3 3 4 4 4 4 4 5 5 5 5 5
3 3 3 3 3 3 2 2 2 3 3 2 1 1 4 2 2 2 2 2 2 3 3 3 3 2 2 2 3 3 3 4 4 4 4 4 4 4 5 5 5 4 4
3 3 3 2 2 3 2 2 2 2 2 2 2 1 2 1 1 1 1 1 1 1 1 1 2 2 1 1 2 2 3 4 4 4 4 3 3 3 4 5 5 5 5
3 3 3 2 2 2 2 2 2 2 2 2 2 2 2 2 1 1 1 1 1 0 0 1 1 1 1 1 1 2 2 3 3 3 4 3 3 3 3 3 4 5 5
3 3 3 2 2 2 2 2 2 2 2 2 2 1 1 1 1 1 0 0 1 1 1 1 1 1 0 0 1 1 2 2 3 3 3 3 3 3 4 4 4 4 4
3 3 2 2 2 2 3 2 2 2 2 2 2 1 1 1 1 0 0 1 1 1 1 1 1 1 1 1 2 2 3 3 4 3 3 2 3 3 3 3 4 4 4
Wind_Direction
194 194 191 189 187 184 191 199 194 186 174 168 172 161 154 149 151 149 203 220 223 244 228 216 238 224 205 199 185 185 189 186 212 233 231 12 59 52 41 44 48 59 68
187 184 182 175 173 178 188 191 179 175 170 165 160 150 155 146 133 149 205 233 231 237 232 213 230 199 192 191 182 191 200 194 187 196 205 135 66 71 56 49 48 53 63
172 176 174 171 174 180 179 172 162 160 155 149 145 149 152 147 145 174 183 215 218 226 217 202 206 177 187 189 184 190 194 186 176 171 175 143 87 86 56 43 39 38 51
170 173 175 178 177 169 161 156 158 157 151 145 138 140 140 140 155 186 174 164 152 145 174 183 193 191 200 194 188 191 176 165 153 149 145 145 142 127 110 56 13 11 17
167 174 180 172 160 152 154 156 154 150 149 140 127 118 116 133 180 180 173 167 158 137 70 186 162 165 172 179 185 187 174 168 160 158 157 152 167 173 196 188 254 339 351
167 174 168 158 154 157 158 156 148 142 134 127 127 127 112 113 123 151 151 151 147 154 232 292 21 182 152 142 143 161 167 169 172 167 175 186 205 203 177 167 161 302 294
166 165 161 160 161 163 161 156 156 154 147 139 138 140 157 275 93 150 154 150 144 157 166 140 86 65 114 122 123 121 127 143 166 169 182 199 200 198 184 187 201 218 250
165 164 164 162 165 163 159 162 163 156 156 159 162 167 163 274 157 154 150 148 125 115 117 136 136 72 97 122 118 105 95 93 166 175 190 199 197 188 191 194 189 167 314
170 173 172 170 167 165 170 174 167 159 162 171 170 170 178 258 226 164 152 142 126 98 78 85 103 93 82 116 120 113 87 53 63 84 104 124 141 150 151 133 131 144 259
177 177 172 168 167 173 176 173 159 154 162 158 145 142 168 240 235 158 152 149 138 111 60 57 65 76 88 107 120 121 107 70 72 74 77 83 103 126 145 162 167 173 193
164 160 163 165 166 167 164 156 149 148 144 141 142 128 140 193 192 137 142 156 162 141 111 64 51 79 91 95 103 111 131 118 101 95 83 73 73 88 128 174 190 188 197
154 156 163 164 162 157 155 150 146 149 149 154 157 145 26 24 56 113 133 155 156 142 145 140 107 103 101 94 91 85 94 99 98 92 84 75 65 30 293 218 206 217 241
156 158 160 152 149 150 155 154 151 155 161 171 177 187 215 294 16 106 129 136 133 133 124 110 104 101 98 89 83 93 102 102 104 100 99 40 295 288 351 18 130 250 315
160 158 157 150 141 138 145 154 159 170 175 180 189 198 203 192 224 199 159 145 134 126 112 98 96 90 87 80 79 80 91 113 130 144 192 320 25 62 79 70 60 13 334
154 149 149 150 148 147 145 154 172 188 190 184 194 193 188 206 223 191 175 179 175 168 132 98 84 83 84 68 66 68 83 89 103 350 109 55 38 32 353 6 32 38 299
148 147 151 155 155 151 144 118 68 118 150 177 178 171 187 193 170 165 172 171 162 151 136 140 166 184 196 212 224 228 216 218 225 221 217 226 239 252 282 325 335 277 272
156 157 156 165 167 162 159 159 150 72 78 117 157 170 174 173 169 170 171 156 148 150 156 192 209 222 230 230 229 228 233 237 226 219 225 234 238 240 246 255 257 267 269
152 156 157 166 170 165 166 167 165 161 164 209 231 196 181 173 168 164 160 140 134 160 201 215 222 228 233 236 236 236 240 236 225 229 235 239 236 234 239 248 245 252 259
141 147 149 152 156 162 165 164 163 166 176 185 181 196 179 164 152 154 155 173 193 204 214 224 230 232 235 238 238 237 236 236 236 235 242 244 239 236 243 246 247 247 248
131 141 150 152 152 159 165 164 167 175 184 196 205 204 162 147 171 184 195 209 215 221 222 224 229 233 235 236 236 238 242 243 241 242 245 245 241 238 245 249 248 249 250
138 141 140 141 155 169 178 180 179 185 194 203 220 208 176 185 200 205 208 216 224 230 228 226 229 233 238 238 236 240 247 252 250 248 248 249 246 244 248 250 251 252 256
138 136 144 157 164 170 177 180 177 185 193 190 191 158 160 159 178 194 212 227 230 228 225 218 225 231 234 235 235 236 243 252 256 254 253 253 252 251 254 253 252 252 254
131 135 139 145 151 154 160 170 180 186 185 169 157 142 140 158 181 188 206 221 220 221 207 201 220 239 252 241 235 238 246 257 258 254 253 254 255 254 252 254 254 253 254
127 135 137 138 139 152 160 164 160 157 151 143 139 145 156 162 166 174 203 199 187 186 176 189 202 205 218 251 273 263 263 272 267 254 248 250 257 259 257 260 262 262 259
123 129 133 134 140 140 138 135 131 132 134 142 149 152 154 150 151 159 187 147 126 121 110 110 142 138 130 283 311 326 331 322 301 282 262 251 256 261 264 266 269 271 267
116 122 123 125 131 136 139 141 145 150 148 151 156 156 152 155 156 150 122 102 107 96 72 54 53 64 48 8 350 354 357 351 335 315 288 269 272 274 278 276 281 276 276
Height
1529 1531 1532 1534 1536 1538 1539 1540 1541 1542 1543 1544 1544 1544 1544 1544 1544 1544 1544 1543 1542 1541 1540 1540 1539 1540 1540 1540 1540 1540 1541 1541 1541 1541 1541 1542 1542 1542 1541 1541 1540 1540 1540
1527 1529 1530 1532 1534 1535 1536 1538 1539 1540 1541 1541 1542 1542 1542 1542 1542 1541 1541 1540 1540 1539 1538 1537 1537 1537 1537 1537 1537 1537 1537 1537 1537 1537 1538 1538 1539 1539 1539 1538 1538 1538 1537
1526 1527 1529 1530 1532 1533 1535 1536 1537 1538 1539 1539 1540 1540 1540 1540 1539 1539 1539 1538 1537 1536 1535 1535 1534 1534 1533 1533 1534 1534 1534 1534 1534 1534 1534 1535 1536 1536 1536 1536 1536 1535 1535
1524 1526 1527 1529 1531 1532 1534 1535 1535 1536 1537 1537 1538 1538 1538 1538 1537 1537 1536 1536 1535 1534 1533 1532 1532 1531 1531 1531 1531 1531 1531 1531 1531 1531 1531 1532 1533 1533 1534 1533 1533 1533 1533
1522 1524 1525 1527 1529 1531 1532 1533 1533 1534 1535 1535 1536 1536 1536 1536 1535 1535 1534 1534 1533 1532 1531 1530 1529 1529 1528 1528 1528 1528 1528 1528 1528 1528 1529 1529 1530 1530 1531 1531 1531 1531 1531
1520 1522 1524 1526 1527 1529 1530 1531 1532 1532 1533 1533 1533 1533 1533 1533 1533 1532 1532 1531 1531 1530 1529 1528 1527 1526 1526 1526 1525 1525 1525 1525 1525 1526 1526 1527 1527 1528 1528 1528 1528 1528 1528
1518 1520 1522 1524 1525 1527 1528 1529 1530 1530 1530 1531 1531 1531 1530 1530 1530 1530 1529 1529 1528 1527 1526 1526 1525 1524 1524 1523 1523 1523 1523 1523 1524 1524 1524 1524 1525 1525 1525 1526 1526 1526 1526
1516 1517 1520 1521 1523 1524 1525 1526 1527 1528 1528 1528 1528 1528 1527 1527 1527 1527 1526 1526 1525 1525 1524 1523 1523 1522 1522 1522 1521 1521 1521 1522 1522 1522 1523 1523 1523 1523 1523 1524 1524 1524 1524
1513 1514 1516 1518 1519 1521 1522 1523 1524 1525 1525 1526 1526 1525 1525 1525 1525 1524 1524 1523 1523 1522 1522 1522 1521 1521 1521 1520 1520 1520 1520 1520 1521 1521 1521 1521 1521 1521 1521 1521 1521 1521 1521
1509 1512 1514 1514 1515 1517 1518 1519 1521 1522 1523 1524 1524 1523 1523 1523 1522 1522 1522 1521 1521 1520 1520 1520 1520 1520 1520 1519 1519 1519 1519 1519 1519 1519 1520 1520 1519 1519 1519 1520 1520 1520 1519
1507 1510 1511 1512 1513 1514 1516 1517 1518 1519 1520 1521 1521 1521 1521 1520 1520 1520 1519 1519 1519 1519 1518 1518 1519 1518 1518 1518 1518 1518 1518 1518 1518 1518 1518 1518 1518 1518 1518 1518 1518 1518 1518
1504 1506 1508 1509 1510 1511 1513 1514 1515 1517 1518 1519 1519 1519 1519 1518 1517 1517 1517 1518 1517 1517 1517 1518 1518 1517 1517 1517 1517 1517 1518 1517 1517 1517 1517 1517 1517 1517 1517 1517 1517 1516 1517
1500 1502 1505 1506 1507 1509 1510 1512 1513 1514 1515 1516 1517 1517 1516 1516 1516 1516 1516 1516 1516 1516 1516 1517 1517 1517 1516 1516 1516 1516 1517 1516 1516 1516 1516 1516 1516 1516 1515 1515 1515 1515 1515
1497 1499 1502 1503 1505 1506 1508 1509 1510 1511 1512 1513 1514 1514 1514 1514 1515 1515 1515 1515 1515 1515 1515 1515 1516 1516 1516 1516 1515 1515 1515 1515 1515 1515 1515 1515 1514 1514 1514 1513 1513 1512 1512
1494 1496 1499 1501 1502 1504 1505 1507 1508 1509 1510 1511 1511 1512 1511 1512 1513 1513 1514 1514 1514 1514 1514 1514 1514 1514 1514 1514 1514 1514 1514 1514 1514 1514 1513 1513 1513 1512 1512 1512 1511 1511 1510
1492 1494 1497 1499 1500 1502 1503 1505 1506 1507 1508 1508 1509 1509 1509 1510 1511 1511 1512 1512 1512 1512 1512 1512 1512 1512 1512 1512 1512 1512 1512 1512 1512 1512 1512 1511 1511 1511 1510 1510 1510 1509 1508
1491 1493 1495 1498 1499 1500 1501 1502 1503 1505 1505 1506 1507 1507 1507 1508 1509 1509 1509 1509 1509 1509 1509 1510 1510 1510 1510 1510 1510 1510 1510 1510 1510 1510 1510 1509 1509 1508 1508 1508 1507 1506 1506
1490 1492 1494 1497 1498 1498 1499 1500 1501 1502 1502 1503 1504 1505 1505 1505 1506 1506 1506 1506 1506 1506 1506 1507 1508 1508 1508 1508 1508 1508 1508 1508 1508 1507 1507 1507 1506 1506 1505 1505 1504 1504 1503
1489 1491 1493 1495 1496 1497 1498 1498 1499 1499 1500 1500 1501 1502 1503 1503 1503 1503 1503 1503 1503 1503 1504 1504 1505 1505 1505 1505 1505 1505 1505 1505 1505 1504 1504 1503 1503 1503 1502 1502 1501 1501 1500
1488 1490 1492 1493 1494 1495 1496 1496 1496 1497 1497 1497 1498 1499 1499 1500 1500 1500 1500 1500 1501 1501 1501 1501 1502 1502 1502 1502 1502 1502 1502 1501 1501 1501 1500 1500 1499 1499 1498 1498 1497 1497 1496
1487 1487 1489 1491 1492 1493 1493 1493 1493 1494 1495 1495 1496 1496 1497 1497 1497 1497 1497 1497 1498 1498 1498 1498 1498 1498 1498 1498 1498 1498 1498 1497 1497 1496 1496 1495 1495 1494 1494 1493 1493 1492 1492
1486 1486 1488 1489 1489 1490 1490 1491 1491 1492 1492 1492 1493 1494 1494 1494 1494 1494 1494 1494 1494 1495 1495 1495 1494 1494 1494 1494 1494 1493 1493 1492 1492 1492 1491 1491 1490 1489 1489 1489 1488 1488 1487
1484 1485 1486 1487 1488 1488 1488 1489 1489 1489 1490 1490 1491 1491 1492 1491 1491 1491 1491 1491 1491 1491 1491 1491 1491 1490 1490 1490 1489 1489 1488 1488 1487 1487 1486 1486 1485 1485 1484 1484 1483 1483 1483
1483 1484 1485 1486 1486 1486 1487 1487 1487 1487 1488 1488 1489 1489 1489 1489 1489 1489 1489 1489 1489 1489 1488 1488 1488 1487 1486 1486 1485 1484 1484 1483 1483 1482 1482 1481 1480 1480 1479 1479 1479 1479 1478
1481 1482 1483 1484 1485 1485 1485 1485 1486 1486 1486 1487 1488 1488 1488 1488 1487 1487 1487 1487 1487 1486 1486 1485 1485 1484 1483 1483 1482 1481 1481 1480 1479 1478 1478 1477 1476 1476 1476 1475 1475 1474 1474
1481 1482 1482 1483 1483 1483 1484 1484 1485 1485 1486 1487 1487 1487 1486 1486 1486 1486 1486 1485 1485 1485 1484 1483 1482 1482 1481 1481 1480 1479 1478 1477 1476 1475 1474 1474 1473 1472 1472 1471 1471 1470 1469